Oakland, CA

9:01 AM PST on January 22, 2018 (GMT -0800)
Metro Oakland International

Weather History for KOAK - July, 2012

Change the Weather History Date:

Thursday, July 5, 2012

  Actual Average Record
Temperature  
Mean Temperature 60 °F 63 °F  
Max Temperature 65 °F 71 °F 84 °F (2011)
Min Temperature 55 °F 55 °F 51 °F (1998)
Degree Days  
Heating Degree Days 5 3  
Month to date heating degree days 18 15  
Since 1 June heating degree days 154 118  
Since 1 July heating degree days 18 15  
Cooling Degree Days 0 1  
Month to date cooling degree days 0 5  
Year to date cooling degree days 16 39  
Since 1 June cooling degree days 9 23  
Growing Degree Days 10 (Base 50)    
Moisture  
Dew Point 51 °F    
Average Humidity 75    
Maximum Humidity 86    
Minimum Humidity 63    
Precipitation  
Precipitation 0.00 in 0.00 in 0.02 in (1948)
Month to date precipitation 0.00 0.00  
Year to date precipitation 11.94 13.22  
Since 1 July precipitation 0.00  
Sea Level Pressure  
Sea Level Pressure 29.98 in    
Wind  
Wind Speed 12 mph (WSW)    
Max Wind Speed 20 mph    
Max Gust Speed 24 mph    
Visibility 10 miles    
Events      
T = Trace of Precipitation, MM = Missing Value Source: NWS Daily Summary

Daily Weather History Graph

Daily Weather History Graph

Search for Another Location

Airport or City:

Trip Planner

Search our weather history database for the weather conditions in past years. The results will help you decide how hot, cold, wet, or windy it might be!

Date:

Astronomy

Jul. 05, 2012 Rise Set
Actual Time 5:53 AM PDT 8:33 PM PDT
Civil Twilight 5:22 AM PDT 9:04 PM PDT
Nautical Twilight 4:43 AM PDT 9:43 PM PDT
Astronomical Twilight 4:00 AM PDT 10:26 PM PDT
Moon 9:57 PM PDT (7/5) 8:08 AM PDT (7/5)
Length of Visible Light 15h 42m
Length of Day
14h 40m
Waning Gibbous, 95% of the Moon is Illuminated
Jul 5
Waning Gibbous
Jul 10
Last Quarter
Jul 18
New
Jul 26
First Quarter
Aug 1
Full

Hourly Weather History & Observations

Time (PDT) Temp. Dew Point Humidity Pressure Visibility Wind Dir Wind Speed Gust Speed Precip Events Conditions
12:53 AM 57.0 °F 52.0 °F 83% 29.92 in 10.0 mi WSW 10.4 mph - N/A   Overcast
1:53 AM 57.0 °F 51.1 °F 81% 29.92 in 10.0 mi WSW 9.2 mph - N/A   Overcast
2:53 AM 55.9 °F 51.1 °F 84% 29.93 in 10.0 mi WSW 10.4 mph - N/A   Overcast
3:31 AM 55.4 °F 51.8 °F 88% 29.93 in 10.0 mi WSW 11.5 mph - N/A   Mostly Cloudy
3:53 AM 55.9 °F 51.1 °F 84% 29.93 in 10.0 mi WSW 10.4 mph - N/A   Overcast
4:53 AM 55.9 °F 51.1 °F 84% 29.94 in 10.0 mi SW 12.7 mph - N/A   Overcast
5:20 AM 55.4 °F 50.0 °F 82% 29.94 in 10.0 mi WSW 13.8 mph - N/A   Overcast
5:53 AM 55.0 °F 48.9 °F 80% 29.95 in 10.0 mi SW 12.7 mph - N/A   Mostly Cloudy
6:53 AM 55.9 °F 50.0 °F 80% 29.96 in 10.0 mi SW 10.4 mph - N/A   Overcast
7:53 AM 57.0 °F 50.0 °F 77% 29.98 in 10.0 mi SW 10.4 mph - N/A   Mostly Cloudy
8:53 AM 57.9 °F 50.0 °F 75% 30.00 in 10.0 mi WSW 15.0 mph - N/A   Mostly Cloudy
9:49 AM 57.2 °F 50.0 °F 77% 30.00 in 10.0 mi SW 12.7 mph - N/A   Mostly Cloudy
9:53 AM 57.9 °F 50.0 °F 75% 30.00 in 10.0 mi SW 11.5 mph - N/A   Mostly Cloudy
10:28 AM 57.2 °F 51.8 °F 82% 30.01 in 10.0 mi SW 12.7 mph - N/A   Overcast
10:53 AM 59.0 °F 50.0 °F 72% 30.02 in 10.0 mi SW 12.7 mph - N/A   Mostly Cloudy
11:53 AM 61.0 °F 51.1 °F 70% 30.02 in 10.0 mi SW 11.5 mph - N/A   Scattered Clouds
12:53 PM 62.1 °F 50.0 °F 65% 30.02 in 10.0 mi WSW 11.5 mph - N/A   Partly Cloudy
1:53 PM 63.0 °F 51.1 °F 65% 30.02 in 10.0 mi West 13.8 mph - N/A   Partly Cloudy
2:53 PM 64.0 °F 51.1 °F 63% 30.02 in 10.0 mi WSW 12.7 mph - N/A   Partly Cloudy
3:53 PM 64.0 °F 51.1 °F 63% 30.01 in 10.0 mi West 15.0 mph - N/A   Partly Cloudy
4:53 PM 63.0 °F 51.1 °F 65% 30.00 in 10.0 mi West 16.1 mph - N/A   Partly Cloudy
5:53 PM 62.1 °F 51.1 °F 67% 29.99 in 10.0 mi West 17.3 mph 23.0 mph N/A   Partly Cloudy
6:53 PM 61.0 °F 51.1 °F 70% 29.99 in 10.0 mi West 13.8 mph - N/A   Partly Cloudy
7:53 PM 59.0 °F 51.1 °F 75% 29.99 in 10.0 mi West 13.8 mph - N/A   Scattered Clouds
8:53 PM 57.0 °F 51.1 °F 81% 30.00 in 10.0 mi West 12.7 mph - N/A   Mostly Cloudy
9:53 PM 57.0 °F 51.1 °F 81% 30.01 in 10.0 mi WSW 11.5 mph - N/A   Mostly Cloudy
10:53 PM 57.0 °F 52.0 °F 83% 30.02 in 10.0 mi West 11.5 mph - N/A   Mostly Cloudy
11:53 PM 57.0 °F 51.1 °F 81% 30.03 in 10.0 mi SSW 6.9 mph - N/A   Overcast